• In Czech Republic
  • List of Countries
  • For 7 days
  • Water Temperature
  • Satellite Maps
  • Weather Map
  • Weather Widgets
  • user-avatar
    Login

    Hourly Weather Mazıdağı

    Today, 24 February, Saturday

    Time Temperature Precipitation Wind Pressure Humidity
    00:00 +6°C° 0.2 mm 0 mps 662 mmHg 73%
    01:00 +7°C° 0.1 mm 1 mps 662 mmHg 74%
    02:00 +7°C° 0.1 mm 1 mps 662 mmHg 75%
    03:00 +6°C° 0 mm 1 mps 662 mmHg 79%
    04:00 +6°C° 0.1 mm 1 mps 662 mmHg 80%
    05:00 +6°C° 0.1 mm 1 mps 662 mmHg 81%
    06:00 +6°C° 0.1 mm 1 mps 662 mmHg 82%
    07:00 +6°C° 0.1 mm 1 mps 662 mmHg 80%
    08:00 +7°C° 0.1 mm 1 mps 662 mmHg 78%
    09:00 +7°C° 0.1 mm 1 mps 662 mmHg 76%
    10:00 +8°C° 0.2 mm 1 mps 662 mmHg 72%
    11:00 +9°C° 0.2 mm 1 mps 663 mmHg 68%
    12:00 +10°C° 0.2 mm 1 mps 663 mmHg 64%
    13:00 +10°C° 0.5 mm 1 mps 663 mmHg 61%
    14:00 +11°C° 0.5 mm 1 mps 662 mmHg 59%
    15:00 +11°C° 0.5 mm 1 mps 662 mmHg 57%
    16:00 +11°C° 0.6 mm 1 mps 662 mmHg 60%
    17:00 +10°C° 0.6 mm 1 mps 662 mmHg 64%
    18:00 +10°C° 0.6 mm 1 mps 662 mmHg 68%
    19:00 +9°C° 0.2 mm 1 mps 662 mmHg 69%
    20:00 +8°C° 0.2 mm 1 mps 662 mmHg 70%
    21:00 +7°C° 0.2 mm 0 mps 662 mmHg 71%
    22:00 +6°C° 0 mm 0 mps 662 mmHg 72%
    23:00 +6°C° 0 mm 0 mps 662 mmHg 73%

    Tomorrow, 25 February, Sunday

    Time Temperature Precipitation Wind Pressure Humidity
    00:00 +6°C° 0 mm 0 mps 662 mmHg 74%
    01:00 +5°C° 0 mm 0 mps 662 mmHg 75%
    02:00 +5°C° 0 mm 0 mps 662 mmHg 75%
    03:00 +5°C° 0 mm 0 mps 662 mmHg 76%
    04:00 +6°C° 0 mm 1 mps 662 mmHg 77%
    05:00 +5°C° 0 mm 1 mps 662 mmHg 77%
    06:00 +5°C° 0 mm 1 mps 662 mmHg 78%
    07:00 +6°C° 0 mm 1 mps 662 mmHg 75%
    08:00 +6°C° 0 mm 2 mps 663 mmHg 73%
    09:00 +7°C° 0 mm 2 mps 663 mmHg 70%
    10:00 +8°C° 0.2 mm 3 mps 663 mmHg 67%
    11:00 +8°C° 0.2 mm 4 mps 663 mmHg 64%
    12:00 +9°C° 0.2 mm 5 mps 663 mmHg 60%
    13:00 +9°C° 0.4 mm 6 mps 662 mmHg 61%
    14:00 +9°C° 0.4 mm 6 mps 662 mmHg 62%
    15:00 +8°C° 0.4 mm 7 mps 661 mmHg 63%
    16:00 +8°C° 0.7 mm 6 mps 661 mmHg 67%
    17:00 +7°C° 0.7 mm 5 mps 661 mmHg 72%
    18:00 +6°C° 0.7 mm 4 mps 661 mmHg 76%
    19:00 +6°C° 1.1 mm 4 mps 661 mmHg 80%
    20:00 +7°C° 1.1 mm 3 mps 661 mmHg 83%
    21:00 +5°C° 1.1 mm 3 mps 661 mmHg 87%
    22:00 +5°C° 0.4 mm 3 mps 661 mmHg 87%
    23:00 +5°C° 0.4 mm 3 mps 661 mmHg 87%

    Day after tomorrow, 26 February, Monday

    Time Temperature Precipitation Wind Pressure Humidity
    00:00 +5°C° 0.4 mm 2 mps 661 mmHg 88%
    01:00 +5°C° 0.2 mm 2 mps 661 mmHg 89%
    02:00 +5°C° 0.2 mm 2 mps 661 mmHg 90%
    03:00 +4°C° 0.2 mm 2 mps 661 mmHg 92%
    04:00 +4°C° 0.2 mm 2 mps 661 mmHg 92%
    05:00 +4°C° 0.2 mm 2 mps 661 mmHg 93%
    06:00 +4°C° 0.2 mm 2 mps 660 mmHg 93%
    07:00 +5°C° 0 mm 2 mps 661 mmHg 90%
    08:00 +5°C° 0 mm 2 mps 661 mmHg 87%
    09:00 +6°C° 0 mm 2 mps 662 mmHg 84%
    10:00 +7°C° 0.2 mm 2 mps 662 mmHg 80%
    11:00 +7°C° 0.2 mm 2 mps 662 mmHg 76%
    12:00 +8°C° 0.2 mm 3 mps 662 mmHg 71%
    13:00 +9°C° 0.4 mm 3 mps 662 mmHg 69%
    14:00 +9°C° 0.4 mm 3 mps 661 mmHg 68%
    15:00 +9°C° 0.4 mm 2 mps 661 mmHg 66%
    16:00 +9°C° 0.5 mm 3 mps 661 mmHg 70%
    17:00 +8°C° 0.5 mm 3 mps 661 mmHg 75%
    18:00 +7°C° 0.5 mm 3 mps 661 mmHg 80%
    19:00 +7°C° 0.3 mm 3 mps 662 mmHg 83%
    20:00 +5°C° 0.3 mm 3 mps 662 mmHg 86%
    21:00 +5°C° 0.3 mm 3 mps 662 mmHg 89%
    22:00 +5°C° 0.2 mm 3 mps 662 mmHg 90%
    23:00 +4°C° 0.2 mm 3 mps 662 mmHg 91%

    27 February, Tuesday

    Time Temperature Precipitation Wind Pressure Humidity
    00:00 +4°C° 0.2 mm 3 mps 662 mmHg 92%
    01:00 +4°C° 0.2 mm 3 mps 662 mmHg 92%
    02:00 +4°C° 0.1 mm 3 mps 662 mmHg 93%
    03:00 +4°C° 0.1 mm 3 mps 662 mmHg 93%
    04:00 +3°C° 0.2 mm 3 mps 662 mmHg 93%
    05:00 +3°C° 0.2 mm 3 mps 662 mmHg 93%
    06:00 +3°C° 0.2 mm 3 mps 662 mmHg 93%
    07:00 +4°C° 0.3 mm 4 mps 663 mmHg 91%
    08:00 +4°C° 0.3 mm 4 mps 663 mmHg 88%
    09:00 +5°C° 0.3 mm 4 mps 664 mmHg 86%
    10:00 +6°C° 0.1 mm 5 mps 664 mmHg 81%
    11:00 +7°C° 0.1 mm 5 mps 664 mmHg 77%
    12:00 +8°C° 0.1 mm 6 mps 664 mmHg 72%
    13:00 +8°C° 0.4 mm 5 mps 664 mmHg 73%
    14:00 +8°C° 0.4 mm 5 mps 664 mmHg 73%
    15:00 +8°C° 0.4 mm 5 mps 664 mmHg 73%
    16:00 +7°C° 0.4 mm 4 mps 664 mmHg 76%
    17:00 +8°C° 0.4 mm 3 mps 664 mmHg 79%
    18:00 +7°C° 0.4 mm 3 mps 664 mmHg 82%
    19:00 +7°C° 0.4 mm 2 mps 664 mmHg 83%
    20:00 +7°C° 0.4 mm 2 mps 664 mmHg 85%
    21:00 +6°C° 0.4 mm 2 mps 665 mmHg 86%
    22:00 +6°C° 0.2 mm 2 mps 665 mmHg 87%
    23:00 +6°C° 0.2 mm 2 mps 665 mmHg 87%

    28 February, Wednesday

    Time Temperature Precipitation Wind Pressure Humidity
    00:00 +7°C° 0.2 mm 1 mps 665 mmHg 88%
    01:00 +7°C° 0 mm 1 mps 665 mmHg 88%
    02:00 +6°C° 0 mm 1 mps 665 mmHg 88%
    03:00 +6°C° 0 mm 1 mps 665 mmHg 88%
    04:00 +6°C° 0 mm 1 mps 665 mmHg 88%
    05:00 +6°C° 0 mm 1 mps 666 mmHg 89%
    06:00 +6°C° 0 mm 1 mps 666 mmHg 89%
    07:00 +6°C° 0 mm 1 mps 666 mmHg 86%
    08:00 +7°C° 0 mm 1 mps 667 mmHg 82%
    09:00 +8°C° 0 mm 1 mps 667 mmHg 79%
    10:00 +9°C° 0 mm 1 mps 667 mmHg 73%
    11:00 +9°C° 0 mm 2 mps 667 mmHg 67%
    12:00 +10°C° 0 mm 2 mps 667 mmHg 62%
    13:00 +12°C° 0 mm 2 mps 667 mmHg 58%
    14:00 +12°C° 0 mm 2 mps 667 mmHg 55%
    15:00 +13°C° 0 mm 2 mps 667 mmHg 52%
    16:00 +12°C° 0 mm 1 mps 666 mmHg 55%
    17:00 +11°C° 0 mm 1 mps 666 mmHg 59%
    18:00 +10°C° 0 mm 1 mps 666 mmHg 63%
    19:00 +10°C° 0 mm 1 mps 666 mmHg 65%
    20:00 +9°C° 0 mm 1 mps 666 mmHg 68%
    21:00 +8°C° 0 mm 1 mps 666 mmHg 70%
    22:00 +8°C° 0 mm 1 mps 666 mmHg 71%
    23:00 +8°C° 0 mm 1 mps 666 mmHg 72%

    1 March, Thursday

    Time Temperature Precipitation Wind Pressure Humidity
    00:00 +7°C° 0 mm 1 mps 666 mmHg 73%
    01:00 +7°C° 0 mm 1 mps 666 mmHg 73%
    02:00 +7°C° 0 mm 1 mps 666 mmHg 74%
    03:00 +6°C° 0 mm 1 mps 666 mmHg 74%
    04:00 +6°C° 0 mm 1 mps 665 mmHg 74%
    05:00 +6°C° 0 mm 1 mps 665 mmHg 75%
    06:00 +6°C° 0 mm 1 mps 665 mmHg 75%
    07:00 +7°C° 0 mm 1 mps 666 mmHg 72%
    08:00 +8°C° 0 mm 1 mps 666 mmHg 69%
    09:00 +9°C° 0 mm 1 mps 667 mmHg 65%
    10:00 +10°C° 0 mm 1 mps 667 mmHg 61%
    11:00 +11°C° 0 mm 1 mps 667 mmHg 57%
    12:00 +12°C° 0 mm 2 mps 667 mmHg 52%
    13:00 +12°C° 0.1 mm 2 mps 667 mmHg 52%
    14:00 +12°C° 0.1 mm 3 mps 667 mmHg 51%
    15:00 +12°C° 0.1 mm 3 mps 666 mmHg 50%
    16:00 +11°C° 0 mm 3 mps 666 mmHg 54%
    17:00 +12°C° 0 mm 2 mps 666 mmHg 59%
    18:00 +10°C° 0 mm 2 mps 666 mmHg 63%
    19:00 +9°C° 0 mm 2 mps 666 mmHg 66%
    20:00 +9°C° 0 mm 1 mps 666 mmHg 68%
    21:00 +8°C° 0 mm 1 mps 666 mmHg 71%
    22:00 +8°C° 0 mm 1 mps 666 mmHg 72%
    23:00 +8°C° 0 mm 1 mps 666 mmHg 73%
    Show more